Terminal Aerodrome Forecast
Issued by NWS

Home | Current Version | Previous Version | Text Only | Print | Product List | Glossary On
Versions: 1 2 3 4 5 6 7 8 9 10 11 12
000
FTUS42 TJSJ 020540
TAFJBQ
TAF
TJBQ 020540Z 0206/0306 VRB06KT P6SM FEW025
     FM021430 06012KT P6SM VCSH FEW030 SCT050
     FM022000 08010KT P6SM VCTS SCT030CB BKN060
     FM030000 VRB05KT P6SM FEW030
      AMD NOT SKED TIL 021100=

USA.gov is the U.S. government's official web portal to all federal, state and local government web resources and services.